Regional Weather Roundup
Issued by NWS Upton, NY

Home | Current Version | Previous Version | Text Only | Print | Product List | Glossary On
Versions: 1 2 3 4 5 6 7 8 9 10 11 12 13 14 15 16 17 18 19 20 21 22 23 24 25 26 27 28 29 30 31 32 33 34 35 36 37 38 39 40 41 42 43 44 45 46 47 48 49 50
000
ASUS41 KOKX 072204
RWROKX

REGIONAL WEATHER ROUNDUP
NATIONAL WEATHER SERVICE NEW YORK NY
500 PM EST SUN FEB 07 2016

NOTE: "FAIR" INDICATES FEW OR NO CLOUDS BELOW 12,000 FEET WITH NO
SIGNIFICANT WEATHER AND/OR OBSTRUCTIONS TO VISIBILITY.

NYZ071-072-176-178-NJZ106-104-072300-
NEW YORK CITY METRO AREA


CITY           SKY/WX    TMP DP  RH WIND       PRES   REMARKS
CENTRAL PARK   MOCLDY    43  21  41 E6        30.05F
LAGUARDIA APRT CLOUDY    42  28  57 NE9       30.04F
KENNEDY INTL   MOCLDY    42  26  53 E7        30.05F
NEWARK/LIBERTY CLOUDY    45  24  43 SE3       30.03F
BRNX BOT. GARD   N/A     41  21  45 E5        30.04F
TETERBORO      CLOUDY    44  19  36 E6        30.02F
$$

NYZ177-179-078>081-072300-
LONG ISLAND NEW YORK

CITY           SKY/WX    TMP DP  RH WIND       PRES   REMARKS
FARMINGDALE    MOCLDY    42  26  53 NE5       30.04F
ISLIP          CLOUDY    39  27  62 NE5       30.03S
SHIRLEY        CLOUDY    39  28  64 N5        30.06S
RIVERHEAD        N/A     34  27  75 W1        30.21S
WESTHAMPTON    CLOUDY    39  27  62 NE5       30.07S
EAST HAMPTON   FAIR      39  27  63 CALM      30.06S
MONTAUK POINT    N/A     40  32  73 NE3       30.08S
$$

NYZ052-065-067-072300-
HUDSON VALLEY

CITY           SKY/WX    TMP DP  RH WIND       PRES   REMARKS
WHITE PLAINS   CLOUDY    40  20  44 E6        30.02F
NEWBURGH       CLEAR     45  21  39 VRB5      30.02F
MONTGOMERY     CLOUDY    43  20  39 E5        30.00F
POUGHKEEPSIE   CLOUDY    47  18  31 CALM      30.02S
ALBANY         PTCLDY    43  19  38 NE3       30.06S
$$

NJZ001-105-106-008-010-013-015-019>022-104-072300-
NEW JERSEY

CITY           SKY/WX    TMP DP  RH WIND       PRES   REMARKS
NEWARK/LIBERTY CLOUDY    45  24  43 SE3       30.03F
TETERBORO      CLOUDY    44  19  36 E6        30.02F
CALDWELL       PTCLDY    44  22  41 E5        30.03F
MORRISTOWN     MOCLDY    43  21  42 E5        30.03F
SOMERVILLE     CLOUDY    43  23  45 CALM      30.00F
SUSSEX         PTCLDY    44  20  38 E3        30.01F
ANDOVER          N/A     43  19  38 CALM      30.01S
TRENTON        MOCLDY    41  23  48 E5        30.01F
MILLVILLE      CLOUDY    42  23  46 N6        29.98F
ATLANTIC CITY  MOCLDY    40  26  57 NE8       29.99F WCI  34
WRIGHTSTOWN    NOT AVBL
TOMS RIVER     MOCLDY    37  27  65 NE3       30.01F
BELMAR         MOCLDY    39  23  52 NE5       30.01F
$$

PAZ047>061-062-071-072300-
EASTERN PENNSYLVANIA

CITY           SKY/WX    TMP DP  RH WIND       PRES   REMARKS
PHILADELPHIA   MOCLDY    43  22  43 E7        30.00F
ALLENTOWN      CLOUDY    43  21  41 NE5       30.00F
SCRANTON       CLEAR     46  23  40 CALM      29.97S
$$

CTZ002-004>006-009-010-012-RIZ004-006-007-MAZ004-011-015-072300-
SOUTHERN NEW ENGLAND
 IN CT

CITY           SKY/WX    TMP DP  RH WIND       PRES   REMARKS
BRADLEY INTL   MOCLDY    42  19  39 N3        30.05S
HARTFORD       PTCLDY    42  22  44 CALM      30.07R
DANBURY        CLOUDY    41  19  41 SE5       30.05S
WTRBRY/OXFORD  CLOUDY    39  18  41 S3        30.05S
BRIDGEPORT     CLOUDY    40  25  55 NE7       30.06F
MERIDEN        PTCLDY    39  27  62 CALM      30.06R
NEW HAVEN      CLOUDY    37  27  67 CALM      30.06F
CHESTER        FAIR      39  28  65 CALM      30.06S
GROTON         CLOUDY    40  30  67 NE6       30.07R
WILLIMANTIC    PTCLDY    41  26  55 CALM      30.07S

 IN RI

CITY           SKY/WX    TMP DP  RH WIND       PRES   REMARKS
PROVIDENCE     MOCLDY    40  25  55 CALM      30.09S
BLOCK ISLAND   CLOUDY    39  32  75 NE7       30.06S WCI  34
WESTERLY       CLOUDY    40  28  62 NE5       30.08S

 IN MA

CITY           SKY/WX    TMP DP  RH WIND       PRES   REMARKS
BOSTON         CLOUDY    38  29  70 E9        30.12S WCI  31
WORCESTER      CLEAR     39  22  50 E3        30.06R
WESTFIELD      CLOUDY    41  21  44 N3        30.06S
PROVINCETOWN   PTCLDY    38  32  79 NE5       30.12S WCI  34
NANTUCKET      CLOUDY    39  31  72 NE6       30.10R WCI  35
$$

ANZ330-335-338-340-345-350-353-355-072300-
COASTAL MARINE OBSERVATIONS


STATION/POSITION TIME  SKY/WX   TEMP    WIND        PRES    VSBY  WAVE
                                AIR SEA DIR/SP/G                  HT/PER
                 (UTC)          (F)     (DEG/KT/KT) (MB)    (MI)  (FT/S)
NY HARB ENTRANCE 2050            41 44   40/ 10/ 10 1016.8          2/ 9
4S FIRE IS       NOT AVBL
20S FIRE ISLAND  2050            41 43   50/ 12/ 14 1016.9          2/10
GREAT SOUTH BAY  NOT AVBL
23SW MTP         2150            41 45   60/ 12/ 14 1017.1          2/10
HUDSON CANYON    2050            44 50              1015.2          3/10
KINGS POINT      2100            42 40   80/  4/  5 1017.2
EXECUTION ROCKS  NOT AVBL
CENTRAL LI SOUND 2100            39      30/  8/  8   N/A           0
EASTERN LI SOUND 2100            40 42   60/  8/ 10   N/A
ROBBINS REEF     2100            43     170/  3/  4 1016.8
$$


>>>>>>>>>>>>>>>>>>>>>>>>>>>> KEY <<<<<<<<<<<<<<<<<<<<<<<<<<<
>                                                          <
>     SKY/WX - SKY CONDITION/PRESENT WEATHER               <
>     TMP    - TEMPERATURE IN FAHRENHEIT                   <
>     DP     - DEWPOINT IN FAHRENHEIT                      <
>     RH     - RELATIVE HUMIDITY IN PERCENT                <
>     WIND   - DIRECTION AND SPEED IN MPH                  <
>     PRES   - MEAN SEA LEVEL PRESSURE IN INCHES OF HG     <
>     WCI    - WIND CHILL INDEX                            <
>     VSB    - VISIBILITY IN MILES                         <
>     HX     - HEAT INDEX                                  <
>     TC     - TEMPERATURE IN CELSIUS                      <
>     VRB    - VARIABLE WIND DIRECTION                     <
>                                                          <
>>>>>>>>>>>>>>>>>>>>>>>>>>>> KEY <<<<<<<<<<<<<<<<<<<<<<<<<<<





USA.gov is the U.S. government's official web portal to all federal, state and local government web resources and services.